[[{"header":{"parameterUnit":"m.s-1","parameterCategory":1,"la1":30.2991,"la2":30.254,"lo1":-89.0895,"lo2":-89.0444,"dy":0.0017,"dx":0.0017,"nx":28,"ny":28,"refTime":"2024-03-10T21:00:00:Z","depth":0,"parameterNumber":2,"parameterNumberName":"U-component_of_WINDS"},"data":[0,0,0,0,0,0,0,0,0,0,0,0,0,0,0,0,0,0,0,0,0,0,0,0,0,0,0,0,0,0,0,0,0,0,0,0,0,0,0,0,0,0,0,0,0,0,0,0,0,0,0,0,0,0,0,0,0,0,-3.4087,-3.4087,0,-3.4128,-3.4128,-3.4129,-3.3966,-3.3961,-3.3956,-3.3952,-3.4,-3.4006,-3.4011,0,0,0,0,0,0,0,0,0,0,0,0,0,-3.3872,-3.3877,-3.4087,-3.4087,-3.4088,-3.4128,-3.4128,-3.4129,-3.3967,-3.3961,-3.3955,-3.395,-3.3998,-3.4005,-3.4012,0,0,0,0,0,0,0,0,0,0,0,0,0,-3.3945,-3.3878,-3.4087,-3.4012,-3.4005,-3.4127,-3.4128,-3.4129,-3.3968,-3.3961,-3.3954,-3.3947,-3.3996,-3.4004,-3.4013,-3.4211,0,0,-3.4039,-3.4043,0,0,0,0,0,0,0,0,-3.3941,-3.3953,-3.4022,-3.4017,-3.401,-3.4034,-3.407,-3.4157,-3.397,-3.3983,-3.3952,-3.3943,-3.4018,-3.4024,-3.4048,-3.4213,-3.4215,-3.404,-3.4045,-3.4049,-3.4051,0,0,0,0,0,0,0,-3.3936,-3.395,-3.4103,-3.4023,-3.4016,-3.3977,-3.3979,-3.4085,-3.404,-3.3981,-3.3969,-3.3976,-3.4013,-3.404,-3.4048,-3.4216,-3.404,-3.4047,-3.4053,-3.4056,-3.4544,-3.4552,0,0,0,0,0,0,-3.394,-3.3947,-3.4102,-3.4104,-3.3957,-3.3987,-3.3989,-3.4034,-3.4039,-3.4032,-3.3982,-3.3968,-3.4029,-3.4038,-3.4049,-3.4281,-3.4049,-3.4057,-3.4062,-3.4536,-3.4546,-3.4554,0,0,0,0,0,0,-3.3936,-3.3955,-3.41,-3.4022,-3.4038,-3.3998,-3.405,-3.4039,-3.4065,-3.4039,-3.4031,-3.4018,-3.4023,-3.4037,-3.4171,-3.428,-3.4061,-3.4069,-3.4527,-3.4539,-3.455,-3.4747,0,0,0,0,0,0,-3.3931,-3.3955,-3.4029,-3.4025,-3.4042,-3.4221,-3.4056,-3.4045,-3.408,-3.4062,-3.4071,-3.4065,-3.4019,-3.4159,-3.418,-3.4288,-3.4076,-3.4517,-3.4533,-3.4546,-3.473,-3.4763,-3.4792,0,0,0,0,0,-3.3923,-3.4085,-3.4034,-3.4054,-3.4134,-3.4228,-3.4238,-3.4179,-3.4089,-3.4164,-3.4147,-3.4065,-3.4264,-3.4174,-3.4196,-3.4309,-3.451,-3.4528,-3.4545,-3.4716,-3.4757,-3.4791,0,0,0,0,0,0,-3.4106,-3.4083,-3.4026,-3.4191,-3.4212,-3.42,-3.4293,-3.4224,-3.4274,-3.4255,-3.4182,-3.4185,-3.4333,-3.4333,-3.4234,-3.45,-3.4372,-3.4395,-3.4494,-3.4533,-3.4563,-3.4561,-3.4083,0,0,0,0,0,-3.4165,-3.4241,-3.4217,-3.4365,-3.4378,-3.4334,-3.4373,-3.4325,-3.4345,-3.4354,-3.4347,-3.4371,-3.4438,-3.4485,-3.4546,-3.4728,-3.4728,-3.4816,-3.4847,-3.4873,-3.4894,-3.499,-3.5029,-3.4612,-3.4611,-3.4611,0,0,-3.4288,-3.4285,-3.4338,-3.4401,-3.4412,-3.4494,-3.4343,-3.4436,-3.4497,-3.4369,-3.4495,-3.4491,-3.4512,-3.4671,-3.4741,-3.4677,-3.5008,-3.4895,-3.4915,-3.4923,-3.5012,-3.5051,-3.5087,-3.4623,-3.4621,-3.4619,0,0,-3.4555,-3.456,-3.4683,-3.4696,-3.4713,-3.4682,-3.4712,-3.471,-3.4701,-3.4825,-3.4731,-3.4802,-3.492,-3.4939,-3.4965,-3.5235,-3.5161,-3.5257,-3.5419,-3.5513,-3.5546,-3.5575,-3.5672,-3.5708,-3.5278,-3.5278,-3.5278,0,-3.4708,-3.4825,-3.4755,-3.4854,-3.4885,-3.4769,-3.4894,-3.491,-3.4948,-3.4972,-3.4898,-3.5043,-3.5049,-3.5211,-3.5277,-3.5301,-3.5333,-3.5257,-3.5547,-3.5575,-3.5601,-3.5693,-3.573,-3.529,-3.5288,-3.5287,-3.5286,0,-3.5012,-3.5095,-3.5192,-3.5228,-3.5269,-3.5381,-3.5328,-3.5379,-3.5327,-3.5304,-3.5432,-3.5435,-3.5494,-3.5528,-3.548,-3.5683,-3.5642,-3.5559,-3.5429,-3.5653,-3.5739,-3.5773,-3.5306,-3.5302,-3.5299,-3.5296,0,0,-3.5399,-3.5391,-3.5429,-3.5443,-3.5452,-3.5516,-3.5621,-3.5676,-3.5721,-3.575,-3.5837,-3.5938,-3.586,-3.5889,-3.5841,-3.5924,-3.6138,-3.583,-3.5829,-3.5888,-3.6362,-3.6426,-3.6468,-3.6087,-3.6094,-3.6099,-3.636,0,-3.5661,-3.584,-3.5778,-3.5961,-3.6037,-3.5927,-3.6018,-3.6035,-3.6015,-3.6078,-3.6056,-3.6129,-3.6021,-3.6037,-3.6113,-3.6096,-3.6232,-3.6076,-3.617,-3.6174,-3.617,-3.6512,-3.658,-3.6827,-3.6393,-3.6399,-3.6403,0,-3.5992,-3.6031,-3.6221,-3.6215,-3.6244,-3.6328,-3.6373,-3.6433,-3.6449,-3.6429,-3.6459,-3.6393,-3.6497,-3.6365,-3.6507,-3.6402,-3.6436,-3.6433,-3.6441,-3.645,-3.6304,-3.6532,-3.6905,-3.6943,-3.6454,-3.645,-3.6447,0,-3.6257,-3.6357,-3.6483,-3.6498,-3.6494,-3.6555,-3.6557,-3.6565,-3.6601,-3.664,-3.6663,-3.6715,-3.6744,-3.6786,-3.6735,-3.6644,-3.6886,-3.6749,-3.6873,-3.6875,-3.6932,-3.6929,-3.7317,-3.6951,-3.695,-3.695,-3.6949,0,-3.6558,-3.6679,-3.6601,-3.6679,-3.6811,-3.6738,-3.6871,-3.686,-3.6868,-3.6942,-3.685,-3.6922,-3.685,-3.6915,-3.6876,-3.7,-3.7014,-3.7002,-3.699,-3.7011,-3.7013,-3.7035,-3.7017,-3.696,-3.6957,-3.6955,-3.6954,0,-3.6877,-3.683,-3.696,-3.6943,-3.6942,-3.704,-3.7027,-3.7099,-3.707,-3.7166,-3.7184,-3.7142,-3.7214,-3.7166,-3.724,-3.7214,-3.7376,-3.734,-3.7371,-3.7362,-3.7489,-3.7478,-3.7906,-3.7959,-3.7558,-3.7562,-3.7565,0,-3.7073,-3.7163,-3.7155,-3.7197,-3.7204,-3.7273,-3.7308,-3.724,-3.7281,-3.7304,-3.7373,-3.7436,-3.7484,-3.7604,-3.7581,-3.7637,-3.7602,-3.7748,-3.761,-3.7628,-3.7606,-3.7602,-3.7611,-3.7777,-3.7782,-3.7786,-3.7789,0,-3.7427,-3.7398,-3.7452,-3.7498,-3.7542,-3.7575,-3.7601,-3.7641,-3.7571,-3.7622,-3.7693,-3.773,-3.7803,-3.7868,-3.7913,-3.7915,-3.7842,-3.7832,-3.7863,-3.7887,-3.7901,-3.7896,-3.7449,-3.7823,-3.782,-3.7817,-3.7815,-3.7814,-3.7691,-3.7765,-3.7771,-3.7833,-3.7844,-3.787,-3.7936,-3.7915,-3.7972,-3.8025,-3.7981,-3.8066,-3.8077,-3.813,-3.8142,-3.8208,-3.8149,-3.8195,-3.8207,-3.822,-3.8238,-3.7889,-3.8216,-3.8215,-3.8214,-3.8213,-3.8212,0,-3.8041,-3.8037,-3.8095,-3.8133,-3.8182,-3.8104,-3.8128,-3.8175,-3.8251,-3.8266,-3.8313,-3.8395,-3.8456,-3.8436,-3.8491,-3.8548,-3.8516,-3.8565,-3.8561,-3.8563,-3.8287,-3.8255,-3.859,-3.859,-3.859,-3.859,-3.859,-3.859,-3.8228,-3.8349,-3.8321,-3.8446,-3.8442,-3.8523,-3.8544,-3.8567,-3.8578,-3.8673,-3.8722,-3.8707,-3.8709,-3.8762,-3.8815,-3.8808,-3.8833,-3.8895,-3.8876,-3.862,-3.8583,-3.8547,-3.8516,-3.8901,-3.8901,-3.9146,-3.9148,-3.915]},{"header":{"parameterUnit":"m.s-1","parameterCategory":1,"la1":30.2991,"la2":30.254,"lo1":-89.0895,"lo2":-89.0444,"dy":0.0017,"dx":0.0017,"nx":28,"ny":28,"refTime":"2024-03-10T21:00:00:Z","depth":0,"parameterNumber":3,"parameterNumberName":"V-component_of_WINDS"},"data":[0,0,0,0,0,0,0,0,0,0,0,0,0,0,0,0,0,0,0,0,0,0,0,0,0,0,0,0,0,0,0,0,0,0,0,0,0,0,0,0,0,0,0,0,0,0,0,0,0,0,0,0,0,0,0,0,0,0,-2.7865,-2.7865,0,-2.7914,-2.7914,-2.7915,-2.7882,-2.788,-2.7879,-2.7877,-2.7925,-2.7928,-2.793,0,0,0,0,0,0,0,0,0,0,0,0,0,-2.7739,-2.7742,-2.7865,-2.7865,-2.7866,-2.7914,-2.7914,-2.7915,-2.7882,-2.788,-2.7878,-2.7877,-2.7924,-2.7927,-2.793,0,0,0,0,0,0,0,0,0,0,0,0,0,-2.7792,-2.7743,-2.7865,-2.7855,-2.7855,-2.7913,-2.7914,-2.7915,-2.7882,-2.788,-2.7878,-2.7876,-2.7923,-2.7927,-2.7931,-2.8,0,0,-2.7943,-2.7945,0,0,0,0,0,0,0,0,-2.7789,-2.7796,-2.7856,-2.7856,-2.7856,-2.7889,-2.7887,-2.7944,-2.7883,-2.7872,-2.7877,-2.7875,-2.7915,-2.7919,-2.7933,-2.8003,-2.8005,-2.7943,-2.7946,-2.7948,-2.7949,0,0,0,0,0,0,0,-2.7785,-2.7794,-2.7884,-2.7857,-2.7857,-2.7848,-2.7853,-2.7898,-2.7905,-2.7873,-2.7871,-2.7877,-2.7914,-2.793,-2.7934,-2.8005,-2.7943,-2.7947,-2.7949,-2.7951,-2.8131,-2.8133,0,0,0,0,0,0,-2.7783,-2.7791,-2.7882,-2.7886,-2.7816,-2.7852,-2.7857,-2.7881,-2.7905,-2.7906,-2.7879,-2.7875,-2.7924,-2.793,-2.7936,-2.8017,-2.7948,-2.7951,-2.7954,-2.8129,-2.8132,-2.8134,0,0,0,0,0,0,-2.778,-2.7791,-2.7881,-2.7838,-2.7848,-2.7856,-2.7883,-2.7883,-2.7898,-2.7909,-2.791,-2.7893,-2.7922,-2.793,-2.7984,-2.8018,-2.7953,-2.7957,-2.8126,-2.813,-2.8133,-2.8181,0,0,0,0,0,0,-2.7777,-2.7791,-2.7818,-2.7839,-2.7851,-2.7929,-2.7885,-2.7886,-2.7906,-2.7901,-2.7923,-2.7925,-2.7921,-2.7978,-2.7988,-2.8022,-2.796,-2.8123,-2.8128,-2.8132,-2.8176,-2.8186,-2.8194,0,0,0,0,0,-2.7772,-2.783,-2.782,-2.7831,-2.7886,-2.7931,-2.7938,-2.7934,-2.7909,-2.7935,-2.7942,-2.7924,-2.8013,-2.7984,-2.7995,-2.8031,-2.8121,-2.8126,-2.8131,-2.8172,-2.8184,-2.8193,0,0,0,0,0,0,-2.7812,-2.7832,-2.7821,-2.7887,-2.7908,-2.7926,-2.796,-2.7947,-2.7974,-2.7969,-2.7962,-2.7967,-2.8023,-2.8032,-2.8,-2.8098,-2.8063,-2.807,-2.809,-2.8101,-2.8109,-2.8106,-2.7963,0,0,0,0,0,-2.7829,-2.7866,-2.788,-2.7937,-2.7948,-2.7952,-2.7972,-2.7967,-2.7988,-2.7996,-2.8007,-2.8027,-2.8059,-2.8081,-2.8111,-2.8177,-2.818,-2.8207,-2.8216,-2.8223,-2.823,-2.8263,-2.8275,-2.8152,-2.8152,-2.8152,0,0,-2.7863,-2.7879,-2.7902,-2.7945,-2.7961,-2.7997,-2.796,-2.8001,-2.8027,-2.8002,-2.8053,-2.8062,-2.8084,-2.8144,-2.817,-2.8153,-2.8264,-2.823,-2.8236,-2.8238,-2.827,-2.8281,-2.8292,-2.8156,-2.8155,-2.8154,0,0,-2.7944,-2.7961,-2.8008,-2.8025,-2.8048,-2.8051,-2.8062,-2.8082,-2.8086,-2.8138,-2.8119,-2.815,-2.8207,-2.8222,-2.8238,-2.8323,-2.8306,-2.8333,-2.8378,-2.8411,-2.8421,-2.8429,-2.8458,-2.8468,-2.834,-2.834,-2.834,0,-2.7984,-2.804,-2.8035,-2.8076,-2.8095,-2.8074,-2.8121,-2.8137,-2.8169,-2.8182,-2.8162,-2.8231,-2.8245,-2.8307,-2.8327,-2.8341,-2.8353,-2.833,-2.842,-2.8428,-2.8436,-2.8463,-2.8474,-2.8343,-2.8342,-2.8342,-2.8342,0,-2.8086,-2.8125,-2.816,-2.8192,-2.8215,-2.8259,-2.8259,-2.8283,-2.8275,-2.8279,-2.833,-2.8345,-2.8378,-2.8392,-2.8385,-2.8453,-2.8441,-2.8421,-2.8385,-2.8451,-2.8476,-2.8487,-2.8347,-2.8346,-2.8345,-2.8344,0,0,-2.8194,-2.8222,-2.8235,-2.8248,-2.8272,-2.8301,-2.8344,-2.8376,-2.8395,-2.8418,-2.8452,-2.85,-2.848,-2.8498,-2.8492,-2.8521,-2.8585,-2.8497,-2.8497,-2.8511,-2.8658,-2.8673,-2.8685,-2.8575,-2.8577,-2.8578,-2.8656,0,-2.8276,-2.8351,-2.8347,-2.8416,-2.8451,-2.8431,-2.8467,-2.8485,-2.8489,-2.8518,-2.8522,-2.8555,-2.8529,-2.8539,-2.8566,-2.8572,-2.8614,-2.8566,-2.8605,-2.8607,-2.8599,-2.8699,-2.8715,-2.8787,-2.8666,-2.8668,-2.8669,0,-2.8381,-2.8407,-2.848,-2.8497,-2.8512,-2.8545,-2.8573,-2.8601,-2.862,-2.8621,-2.864,-2.8629,-2.867,-2.8634,-2.8689,-2.8656,-2.8672,-2.8677,-2.8679,-2.8682,-2.8641,-2.8703,-2.8811,-2.8821,-2.8685,-2.8684,-2.8683,0,-2.845,-2.8504,-2.8554,-2.8566,-2.8588,-2.8612,-2.8621,-2.8638,-2.8657,-2.8681,-2.8693,-2.8721,-2.8737,-2.8758,-2.8755,-2.8729,-2.8811,-2.8774,-2.8811,-2.8811,-2.8829,-2.8827,-2.8939,-2.8841,-2.8841,-2.884,-2.884,0,-2.8541,-2.8586,-2.8585,-2.8616,-2.8666,-2.866,-2.8708,-2.8715,-2.873,-2.8761,-2.8745,-2.8774,-2.8768,-2.8797,-2.8794,-2.8839,-2.8847,-2.8847,-2.8846,-2.8848,-2.8848,-2.8857,-2.8852,-2.8843,-2.8843,-2.8842,-2.8842,0,-2.8627,-2.8629,-2.8682,-2.8698,-2.8702,-2.8738,-2.8751,-2.8779,-2.8782,-2.882,-2.8829,-2.8833,-2.8865,-2.8864,-2.8901,-2.8899,-2.8954,-2.8947,-2.8948,-2.8946,-2.8982,-2.8978,-2.9103,-2.9118,-2.9011,-2.9012,-2.9013,0,-2.8684,-2.8719,-2.8738,-2.8757,-2.8769,-2.8801,-2.882,-2.8814,-2.8835,-2.8858,-2.8883,-2.8914,-2.8938,-2.899,-2.8996,-2.9023,-2.9016,-2.9058,-2.902,-2.9021,-2.9015,-2.9012,-2.9015,-2.9065,-2.9066,-2.9067,-2.9068,0,-2.8785,-2.8784,-2.8812,-2.884,-2.8863,-2.8885,-2.8905,-2.8922,-2.8918,-2.8942,-2.8975,-2.8994,-2.903,-2.9061,-2.9087,-2.9095,-2.9081,-2.908,-2.9089,-2.9092,-2.909,-2.909,-2.8966,-2.9077,-2.9076,-2.9075,-2.9075,-2.9074,-2.8858,-2.8886,-2.8904,-2.8935,-2.895,-2.8968,-2.8995,-2.9001,-2.9028,-2.9058,-2.9053,-2.909,-2.9106,-2.9139,-2.915,-2.9178,-2.9163,-2.9177,-2.918,-2.9184,-2.9187,-2.9086,-2.9182,-2.9182,-2.9182,-2.9182,-2.9182,0,-2.8956,-2.8966,-2.8995,-2.9023,-2.9048,-2.9032,-2.9053,-2.9074,-2.9107,-2.9123,-2.9147,-2.9184,-2.9213,-2.922,-2.9247,-2.9268,-2.9261,-2.9275,-2.9273,-2.9274,-2.92,-2.9188,-2.9279,-2.9279,-2.9279,-2.9279,-2.9279,-2.9279,-2.901,-2.9058,-2.9058,-2.9111,-2.9121,-2.9157,-2.917,-2.9186,-2.9199,-2.9241,-2.9265,-2.9269,-2.9282,-2.9309,-2.9334,-2.9336,-2.9346,-2.9362,-2.936,-2.929,-2.928,-2.9271,-2.9259,-2.9364,-2.9364,-2.9432,-2.9433,-2.9433]}]]